STARLINK-32653, 62199

Orbit data source: Space-Track

STARLINK-32653, 62199 is a payload satellite owned by SpaceX/Seattle (US) in LEO that was launched on Wed, 04 Dec 2024 UTC via an FALCON 9 launch vehicle from the Air Force Eastern Test Range (AFETR). Payload-class satellites include a variety of spacecraft equipped with specific instruments for various scientific and technological missions. These include communications satellites like Starlink; space stations such as the ISS; scientific satellites like the Hubble; Earth observation satellites from companies like Planet Labs, Umbra, and HawkEye 360; GPS; miniature CubeSats for education and research; and military/defense satellites.

Loading next visibility...
Identifier
62199, 2024-229H
Orbit
LEO
Last TLE update
14 hours ago
Origin
Manufacturer
SpaceX/Seattle
Mission
Operational Commercial Communications
Bus & Motor
STARLINK V2M, Unknown motor
Mass
730 kg wet, ~700 kg dry
Launch date (UTC)
2024-12-04 (7 months ago)
Launch vehicle
FALCON 9
Launch site
Air Force Eastern Test Range (AFETR)
Object type
Payload
Rocket body
Debris
Shape & HBR
Box + 2 Pan, 29 m
Radar Cross Section
33.884 m², Large (>1 m²)

Expand to show TLE details & history

TLE from 14 hours ago
0 STARLINK-32653
1 62199U 24229H   25189.75462487  .00014565  00000-0  53765-3 0  9994
2 62199  43.0018 201.4561 0001904 277.5274  82.5361 15.27585892 33331
Epoch: 2025-07-08T18:06Z
TLE epoch observation values (Epoch: 2025-07-08T18:06:39.588Z)
Latitude
-0.00005°
Longitude
2.84603°
Altitude
482.638 km
Speed
7.626 km/s
True Right ascension
13h 25m 49s
True Declination
0° 00' 00"
Sunlit
Object was in daylight at epoch
Visualization orbit readout
Latitude
-42.70621°
Longitude
-100.56193°
Altitude
494.906 km
Speed
7.618 km/s
Apparent Right ascension
07h 14m 27s
Apparent Declination
-41° 40' 55"
Sunlit
Object is in daylight
Visualization observer readout
Local Sidereal Time
19:58:06
Azimuth
105.602° ESE
Elevation
-81.559°
Doppler factor
1
Orbital elements
Apogee altitude
486.283 km
Perigee altitude
483.67 km
Semi-major axis
6,863.113 km
Eccentricity
0.00019
Inclination
43.0018°
RAAN
201.4561°
Arg. of periapsis
277.5274°
True anomaly
Unknown
Mean anomaly
82.5361°
Eccentric anomaly
Unknown
Mean motion
3.81735 °/min
Orbital period
94.31 mins
BSTAR
0.00053765
Loading maneuver chart data...
Loading SW <> Apogee altitude chart data...
Loading historical data...
Loading historical data...
Loading historical data...
Loading historical data...
Loading historical data...
Loading historical data...
Loading historical data...

STARLINK-32653 Visibility forecast

Observer location: undefined°, undefined°

Span
Click to sort rows by Start time (UTC) header in descending order
Start Az.
Max El. time (UTC)
Max El. Az.
Max El.
End time (UTC)
End Az.
6 mins2025-07-09 08:39:32.543Z288.88° WNW2025-07-09 08:42:32.543Z21.929° NNE44.902°2025-07-09 08:45:32.543Z106.429° ESE
4 mins2025-07-09 10:19:32.543Z252.152° W2025-07-09 10:21:32.543Z204.689° SW22.452°2025-07-09 10:23:32.543Z165.51° S
4 mins2025-07-10 03:16:32.543Z175.906° S2025-07-10 03:17:32.543Z152.731° SSE21.592°2025-07-10 03:20:32.543Z94.559° ESE
5 mins2025-07-10 04:54:32.543Z252.622° W2025-07-10 04:56:32.543Z46.498° ENE44.902°2025-07-10 04:59:32.543Z71.572° E
5 mins2025-07-10 06:33:32.543Z291.904° WNW2025-07-10 06:35:32.543Z355.619° N37.976°2025-07-10 06:38:32.543Z73.8° E
|